| time (UTC) | temp F | wind direction | speed MPH | gust MPH | rain 1hr in | rain 24hr in | rain mn in | humidity % | barometer mb |
| 20260509064501 | 49 | 213 | 0.0 | 0.0 | 0.00 | 0.00 | 0.00 | 14 | 1005.4 |
| 20260509063001 | 49 | 213 | 0.0 | 0.0 | 0.00 | 0.00 | 0.00 | 15 | 1005.3 |
| 20260509061619 | 50 | 213 | 0.0 | 0.0 | 0.00 | 0.00 | 0.00 | 18 | 1005.4 |
| 20260509054616 | 50 | 213 | 0.0 | 0.0 | 0.00 | 0.00 | 0.00 | 15 | 1005.8 |
| 20260509053144 | 51 | 213 | 0.0 | 0.0 | 0.00 | 0.00 | 0.00 | 18 | 1005.9 |
| 20260509051558 | 51 | 213 | 0.0 | 0.0 | 0.00 | 0.00 | 0.00 | 19 | 1005.9 |
| 20260509050059 | 52 | 213 | 0.0 | 0.0 | 0.00 | 0.00 | 0.00 | 24 | 1006.2 |
| 20260509044557 | 52 | 213 | 0.0 | 0.0 | 0.00 | 0.00 | 0.00 | 26 | 1006.1 |
| 20260509043058 | 53 | 213 | 0.0 | 0.0 | 0.00 | 0.00 | 0.00 | 27 | 1006.0 |
| 20260509041556 | 53 | 213 | 0.0 | 0.0 | 0.00 | 0.00 | 0.00 | 29 | 1005.5 |
| 20260509040112 | 54 | 213 | 0.0 | 0.0 | 0.00 | 0.00 | 0.00 | 30 | 1006.0 |
| 20260509034622 | 55 | 213 | 0.0 | 0.0 | 0.00 | 0.00 | 0.00 | 34 | 1006.0 |
| 20260509033055 | 56 | 213 | 0.0 | 0.0 | 0.00 | 0.00 | 0.00 | 37 | 1005.2 |
| 20260509031554 | 57 | 213 | 0.0 | 0.0 | 0.00 | 0.00 | 0.00 | 37 | 1004.7 |
| 20260509030105 | 58 | 213 | 0.0 | 0.0 | 0.00 | 0.00 | 0.00 | 37 | 1006.8 |
| 20260509024554 | 58 | 213 | 0.0 | 0.0 | 0.00 | 0.00 | 0.00 | 36 | 1006.3 |
| 20260509023053 | 60 | 213 | 0.0 | 0.0 | 0.00 | 0.00 | 0.00 | 33 | 1005.8 |
| 20260509021552 | 61 | 213 | 0.0 | 0.0 | 0.00 | 0.00 | 0.00 | 30 | 1005.6 |
| 20260509020051 | 62 | 213 | 0.0 | 0.0 | 0.00 | 0.00 | 0.00 | 28 | 1007.0 |
| 20260509014551 | 62 | 213 | 0.0 | 0.0 | 0.00 | 0.00 | 0.00 | 29 | 1006.4 |
| 20260509013107 | 63 | 213 | 0.0 | 0.0 | 0.00 | 0.00 | 0.00 | 28 | 1006.5 |
| 20260509011559 | 64 | 213 | 0.0 | 0.0 | 0.00 | 0.00 | 0.00 | 27 | 1006.2 |
| 20260509010049 | 67 | 210 | 1.0 | 0.0 | 0.00 | 0.00 | 0.00 | 24 | 1005.9 |
| 20260509004548 | 69 | 140 | 1.0 | 0.0 | 0.00 | 0.00 | 0.00 | 22 | 1005.8 |
| 20260509003108 | 68 | 196 | 1.0 | 0.0 | 0.00 | 0.00 | 0.00 | 23 | 1006.0 |
| 20260509001547 | 67 | 219 | 1.0 | 0.0 | 0.00 | 0.00 | 0.00 | 23 | 1006.6 |
| 20260509000101 | 67 | 198 | 1.0 | 0.0 | 0.00 | 0.00 | 0.00 | 23 | 1006.0 |
| 20260508234546 | 68 | 195 | 1.0 | 0.0 | 0.00 | 0.00 | 0.00 | 27 | 1005.9 |
| 20260508233047 | 69 | 143 | 1.0 | 0.0 | 0.00 | 0.00 | 0.00 | 27 | 1006.0 |
| 20260508231548 | 70 | 232 | 1.0 | 0.0 | 0.00 | 0.00 | 0.00 | 26 | 1005.6 |
| 20260508230043 | 70 | 133 | 1.0 | 0.0 | 0.00 | 0.00 | 0.00 | 24 | 1005.9 |
| 20260508224544 | 69 | 137 | 2.0 | 0.0 | 0.00 | 0.00 | 0.00 | 22 | 1006.0 |
| 20260508223042 | 70 | 213 | 1.0 | 0.0 | 0.00 | 0.00 | 0.00 | 22 | 1005.7 |
| 20260508221541 | 71 | 230 | 1.0 | 0.0 | 0.00 | 0.00 | 0.00 | 21 | 1006.0 |
| 20260508220040 | 71 | 141 | 1.0 | 0.0 | 0.00 | 0.00 | 0.00 | 16 | 1006.2 |
| 20260508214538 | 71 | 213 | 1.0 | 0.0 | 0.00 | 0.00 | 0.00 | 17 | 1006.3 |
| 20260508213037 | 71 | 223 | 1.0 | 0.0 | 0.00 | 0.00 | 0.00 | 14 | 1006.7 |
| 20260508211536 | 70 | 200 | 1.0 | 0.0 | 0.00 | 0.00 | 0.00 | 15 | 1006.6 |
| 20260508210035 | 71 | 138 | 1.0 | 0.0 | 0.00 | 0.00 | 0.00 | 12 | 1006.8 |
| 20260508204535 | 71 | 217 | 1.0 | 0.0 | 0.00 | 0.00 | 0.00 | 9 | 1006.9 |
| 20260508203037 | 72 | 195 | 0.0 | 0.0 | 0.00 | 0.00 | 0.00 | 11 | 1006.3 |
| 20260508201531 | 72 | 169 | 1.0 | 0.0 | 0.00 | 0.00 | 0.00 | 9 | 1006.9 |
| 20260508200030 | 71 | 236 | 1.0 | 0.0 | 0.00 | 0.00 | 0.00 | 9 | 1006.5 |
| 20260508194528 | 71 | 246 | 1.0 | 0.0 | 0.00 | 0.00 | 0.00 | 9 | 1006.8 |
| 20260508193027 | 71 | 202 | 0.0 | 0.0 | 0.00 | 0.00 | 0.00 | 9 | 1007.3 |
| 20260508191523 | 70 | 192 | 0.0 | 0.0 | 0.00 | 0.00 | 0.00 | 10 | 1007.5 |
| 20260508190035 | 70 | 202 | 0.0 | 0.0 | 0.00 | 0.00 | 0.00 | 11 | 1007.2 |
| 20260508184524 | 69 | 226 | 0.0 | 0.0 | 0.00 | 0.00 | 0.00 | 13 | 1007.2 |
| 20260508183020 | 68 | 339 | 0.0 | 0.0 | 0.00 | 0.00 | 0.00 | 12 | 1007.3 |
| 20260508181517 | 67 | 243 | 0.0 | 0.0 | 0.00 | 0.00 | 0.00 | 13 | 1007.9 |
| 20260508180015 | 66 | 209 | 0.0 | 0.0 | 0.00 | 0.00 | 0.00 | 13 | 1007.8 |
| 20260508174528 | 66 | 215 | 0.0 | 0.0 | 0.00 | 0.00 | 0.00 | 15 | 1007.6 |
| 20260508173011 | 65 | 44 | 0.0 | 0.0 | 0.00 | 0.00 | 0.00 | 21 | 1007.8 |
| 20260508171507 | 64 | 253 | 0.0 | 0.0 | 0.00 | 0.00 | 0.00 | 17 | 1008.0 |
| 20260508170002 | 64 | 253 | 0.0 | 0.0 | 0.00 | 0.00 | 0.00 | 17 | 1007.4 |
| 20260508164604 | 63 | 164 | 0.0 | 0.0 | 0.00 | 0.00 | 0.00 | 22 | 1007.9 |
| 20260508163114 | 62 | 270 | 0.0 | 0.0 | 0.00 | 0.00 | 0.00 | 18 | 1008.0 |
| 20260508161551 | 61 | 161 | 0.0 | 0.0 | 0.00 | 0.00 | 0.00 | 20 | 1008.3 |
| 20260508160050 | 59 | 185 | 0.0 | 0.0 | 0.00 | 0.00 | 0.00 | 20 | 1007.8 |
| 20260508154552 | 58 | 161 | 0.0 | 0.0 | 0.00 | 0.00 | 0.00 | 20 | 1008.2 |
| 20260508153043 | 56 | 147 | 0.0 | 0.0 | 0.00 | 0.00 | 0.00 | 23 | 1008.7 |
| 20260508151541 | 53 | 145 | 0.0 | 0.0 | 0.00 | 0.00 | 0.00 | 28 | 1009.6 |
| 20260508150033 | 51 | 145 | 0.0 | 0.0 | 0.00 | 0.00 | 0.00 | 33 | 1009.1 |
| 20260508144536 | 49 | 145 | 0.0 | 0.0 | 0.00 | 0.00 | 0.00 | 37 | 1009.3 |
| 20260508143027 | 47 | 145 | 0.0 | 0.0 | 0.00 | 0.00 | 0.00 | 40 | 1009.4 |
| 20260508141524 | 46 | 145 | 0.0 | 0.0 | 0.00 | 0.00 | 0.00 | 40 | 1010.0 |
| 20260508140029 | 45 | 145 | 0.0 | 0.0 | 0.00 | 0.00 | 0.00 | 39 | 1009.3 |
| 20260508134525 | 44 | 145 | 0.0 | 0.0 | 0.00 | 0.00 | 0.00 | 36 | 1009.8 |
| 20260508133022 | 43 | 145 | 0.0 | 0.0 | 0.00 | 0.00 | 0.00 | 37 | 1009.7 |
| 20260508131520 | 43 | 145 | 0.0 | 0.0 | 0.00 | 0.00 | 0.00 | 38 | 1009.6 |
| 20260508130019 | 43 | 145 | 0.0 | 0.0 | 0.00 | 0.00 | 0.00 | 39 | 1008.0 |
| 20260508124518 | 43 | 145 | 0.0 | 0.0 | 0.00 | 0.00 | 0.00 | 36 | 1007.9 |
| 20260508123017 | 43 | 145 | 0.0 | 0.0 | 0.00 | 0.00 | 0.00 | 39 | 1007.9 |
| 20260508121517 | 43 | 145 | 0.0 | 0.0 | 0.00 | 0.00 | 0.00 | 39 | 1007.9 |
| 20260508120016 | 43 | 145 | 0.0 | 0.0 | 0.00 | 0.00 | 0.00 | 39 | 1007.8 |
| 20260508114515 | 43 | 145 | 0.0 | 0.0 | 0.00 | 0.00 | 0.00 | 41 | 1007.9 |
| 20260508113014 | 44 | 145 | 0.0 | 0.0 | 0.00 | 0.00 | 0.00 | 39 | 1007.9 |
| 20260508111513 | 44 | 145 | 0.0 | 0.0 | 0.00 | 0.00 | 0.00 | 40 | 1007.8 |
| 20260508110011 | 44 | 145 | 0.0 | 0.0 | 0.00 | 0.00 | 0.00 | 41 | 1006.9 |
| 20260508104510 | 44 | 145 | 0.0 | 0.0 | 0.00 | 0.00 | 0.00 | 39 | 1006.9 |
| 20260508103012 | 44 | 145 | 0.0 | 0.0 | 0.00 | 0.00 | 0.00 | 41 | 1007.0 |
| 20260508101522 | 44 | 145 | 0.0 | 0.0 | 0.00 | 0.00 | 0.00 | 41 | 1007.1 |
| 20260508100007 | 44 | 145 | 0.0 | 0.0 | 0.00 | 0.00 | 0.00 | 42 | 1007.2 |
| 20260508094507 | 44 | 145 | 0.0 | 0.0 | 0.00 | 0.00 | 0.00 | 43 | 1007.2 |
| 20260508093020 | 45 | 145 | 0.0 | 0.0 | 0.00 | 0.00 | 0.00 | 43 | 1007.2 |
| 20260508091503 | 45 | 145 | 0.0 | 0.0 | 0.00 | 0.00 | 0.00 | 43 | 1007.3 |
| 20260508090006 | 45 | 145 | 0.0 | 0.0 | 0.00 | 0.00 | 0.00 | 44 | 1007.4 |
| 20260508084502 | 45 | 145 | 0.0 | 0.0 | 0.00 | 0.00 | 0.00 | 47 | 1007.5 |
| 20260508083001 | 45 | 145 | 0.0 | 0.0 | 0.00 | 0.00 | 0.00 | 46 | 1007.5 |
| 20260508081615 | 45 | 145 | 0.0 | 0.0 | 0.00 | 0.00 | 0.00 | 47 | 1007.6 |
| 20260508080104 | 45 | 145 | 0.0 | 0.0 | 0.00 | 0.00 | 0.00 | 49 | 1007.4 |
| 20260508074557 | 46 | 145 | 0.0 | 0.0 | 0.00 | 0.00 | 0.00 | 48 | 1007.5 |
| 20260508073059 | 46 | 145 | 0.0 | 0.0 | 0.00 | 0.00 | 0.00 | 48 | 1007.6 |
| 20260508071556 | 46 | 145 | 0.0 | 0.0 | 0.00 | 0.00 | 0.00 | 47 | 1007.5 |
| 20260508070056 | 46 | 145 | 0.0 | 0.0 | 0.00 | 0.00 | 0.00 | 48 | 1007.9 |